Regional Weather Roundup
Issued by NWS Midland/Odessa, TX

Skip options and go directly to product.
Home | Oldest Version | Previous Version | Current Version | All | Text Only | Save Text | Print | Product List | Glossary On

Skip product version selection by date and time.   
682
ASUS44 KMAF 250610
RWRMAF
MIDLAND AREA WEATHER ROUNDUP
NATIONAL WEATHER SERVICE MIDLAND TX
100 AM CDT THU AUG 25 2016

...IN SOUTHWEST TEXAS AND SOUTHEAST NEW MEXICO...

CITY           SKY/WX    TMP DP  RH WIND       PRES   REMARKS
ALPINE         CLOUDY    69  64  84 S7        30.24S
ANDREWS        NOT AVBL
ARTESIA        CLEAR     66  66 100 S7        30.10S
BIG SPRING     MOCLDY    73  71  94 CALM      30.13S
CARLSBAD       CLEAR     67  64  90 S9        30.08S
DRYDEN           N/A     80  64  58 E13       30.06R
FORT STOCKTON  PTCLDY    70  65  84 SE3       30.10F
GUAD PASS      CLEAR     67  59  75 NE8       30.23F
HOBBS          CLOUDY    64  64 100 S5        30.14F
MARFA          CLOUDY   N/A N/A N/A CALM      30.23S
MIDLAND AIRPK  PTCLDY    75  66  75 SE5       30.12S
MIDLAND INTL   PTCLDY    73  65  75 SE8       30.11S
ODESSA         CLEAR     71  65  81 E8        30.12S
PECOS          MOCLDY    68  65  91 E7        30.07S
PRESIDIO       NOT AVBL
SEMINOLE       CLOUDY    66  64  92 CALM      30.13F
SNYDER           N/A     68  65  88 CALM      30.10S
WINK           PTCLDY    69  64  84 SE6       30.07F
$$
...OTHER STATIONS IN TEXAS...

CITY           SKY/WX    TMP DP  RH WIND       PRES   REMARKS
ABILENE        CLEAR     76  66  71 S10       30.10
AMARILLO       CLEAR     68  58  70 W8        30.15R
AUSTIN         CLEAR     77  75  93 S7        30.08F
BROWNSVILLE    CLEAR     79  76  90 SE5       30.05F
CORPUS CHRISTI PTCLDY    79  76  90 SE6       30.06S
DALLAS FTW     PTCLDY    82  69  64 S12       30.04F
DEL RIO        CLEAR     80  72  76 E12G21    30.03S
EL PASO        PTCLDY    77  53  43 N10       30.09S
HOUSTON INT    PTCLDY    79  75  87 CALM      30.07F
LUBBOCK        CLOUDY    70  64  81 SE5       30.12S
SAN ANGELO     CLEAR     75  66  73 SE6       30.09
SAN ANTONIO    PTCLDY    77  73  87 SE9       30.10S
WACO           CLEAR     81  74  79 SE9       30.07
WICHITA FALLS  NOT AVBL
$$
...OTHER LOCATIONS IN NEW MEXICO...

CITY           SKY/WX    TMP DP  RH WIND       PRES   REMARKS
ALAMAGORDO     LGT RAIN  72  52  49 E14       30.11F
ALBUQUERQUE    PTCLDY    64  49  57 SE8       30.22
CANNON AFB     CLOUDY    67  55  64 NE12      30.19S
CLOVIS         CLOUDY    64  54  68 NE13      30.19F
HOLLOMAN AFB   CLOUDY    70  56  60 N7        30.09R
ROSWELL        CLOUDY    67  63  87 S5        30.11S
RUIDOSO          N/A     59  50  72 SW10      30.32F
SANTA FE       CLOUDY    57  49  74 NW6       30.27S
TRUTH OR CONSE CLEAR     66  54  65 N3        30.17S
TUCUMCARI      CLOUDY    64  58  80 E7        30.17S
$$

USA.gov is the U.S. government's official web portal to all federal, state and local government web resources and services.